Home > Weather > Columbia > Past weeks

Flag for U.S.A. Weather for the Past 2 Weeks in Columbia, South Carolina, U.S.A.

Now
31 °F

Clear.


Feels Like: 31 °F
Forecast: 31 / 52 °F
Wind: No wind

Location: Columbia Owens Downtown Airport

Current Time: Feb 6, 2016 at 6:36:56 AM

Latest Report: Feb 6, 2016 at 5:53 AM


Visibility: 10 mi

Pressure: 30.43 "Hg

Humidity: 82%

Dew point: 26 °F

Location of ColumbiaLocation

Historic Weather in Columbia — Graph

°F

Columbia Temperature Yesterday

Maximum temperature yesterday: 52 °F (at 12:00 AM)
Minimum temperature yesterday: 34 °F (at 11:53 PM)
Average temperature yesterday: 46 °F

High & Low Weather Summary for the Past Weeks

 TemperatureHumidityPressure
High75 °F (Feb 1, 1:53 PM)97% (Feb 2, 6:53 AM)30.43 "Hg (Feb 2, 6:53 AM)
Low28 °F (Jan 24, 6:53 AM)21% (Feb 5, 1:53 PM)29.61 "Hg (Jan 22, 8:53 PM)
Average49 °F72%30.05 "Hg
* Reported Jan 22 4:53 AM — Feb 6 4:53 AM, Columbia, Weather by CustomWeather, © 2016

Note: Actual official high and low records may vary slightly from our data, if they occured in-between our weather recording intervals... More about our weather records

Advertising

Columbia Weather History for the Previous 24 Hours

 ConditionsComfort  
Time TempWeatherWind HumidityBarometerVisibility
4:53 AM
Sat, Feb 6
30 °FClear.No wind85%30.43 "Hg10 mi
3:53 AM31 °FClear.No wind85%30.42 "Hg10 mi
2:53 AM31 °FClear.No wind85%30.40 "Hg10 mi
1:53 AM32 °FClear.No wind82%30.39 "Hg10 mi
12:53 AM33 °FClear.No wind82%30.41 "Hg10 mi
11:53 PM
Fri, Feb 5
34 °FClear.No wind79%30.42 "Hg10 mi
10:53 PM36 °FClear.No wind75%30.42 "Hg7 mi
9:53 PM37 °FClear.No wind73%30.41 "Hg10 mi
8:53 PM38 °FClear.No wind68%30.40 "Hg10 mi
7:53 PM40 °FClear.No wind60%30.40 "Hg10 mi
6:53 PM44 °FClear.No wind45%30.37 "Hg10 mi
5:53 PM49 °FSunny.3 mph27%30.35 "Hg10 mi
4:53 PM52 °FSunny.7 mph22%30.34 "Hg10 mi
3:53 PM52 °FSunny.7 mph21%30.34 "Hg10 mi
2:53 PM52 °FSunny.N/A22%30.33 "Hg10 mi
1:53 PM51 °FSunny.3 mph21%30.33 "Hg10 mi
12:53 PM50 °FSunny.9 mph24%30.35 "Hg10 mi
11:53 AM49 °FSunny.7 mph25%30.35 "Hg10 mi
10:53 AM47 °FSunny.12 mph29%30.36 "Hg10 mi
9:53 AM45 °FSunny.8 mph38%30.35 "Hg10 mi
8:53 AM42 °FSunny.8 mph51%30.33 "Hg10 mi
7:53 AM41 °FSunny.6 mph67%30.31 "Hg10 mi
6:53 AM42 °FClear.3 mph68%30.26 "Hg10 mi
Weather by CustomWeather, © 2016

See weather overviewHow to use our weather pages